Location: *
(51.4660°N, 0.3360°W)
Time: 06:33:55
(UTC+00:00)

ADEOS Rocket - Pass Details

Date: 19 September 2019
Orbit: 859 x 1306 km, 98.7° (Epoch: 17 October)

Event Time Altitude Azimuth Distance (km) Brightness Sun altitude
Rises 21:09:39 0° 12° (NNE) 4,014 6.6 -26.7°
Reaches altitude 10° 21:12:13 10° 8° (N) 3,106 6.0 -27.0°
Maximum altitude 21:19:07 51° 296° (WNW) 1,535 4.2 -27.8°
Drops below altitude 10° 21:26:27 10° 223° (SW) 3,300 5.7 -28.6°
Sets 21:29:16 0° 219° (SW) 4,282 6.3 -28.9°
